[[{"header":{"parameterUnit":"m.s-1","parameterCategory":1,"la1":30.2991,"la2":30.254,"lo1":-89.0895,"lo2":-89.0444,"dy":0.0017,"dx":0.0017,"nx":28,"ny":28,"refTime":"2024-05-18T09:00:00:Z","depth":0,"parameterNumber":2,"parameterNumberName":"U-component_of_WINDS"},"data":[0,0,0,0,0,0,0,0,0,0,0,0,0,0,0,0,0,0,0,0,0,0,0,0,0,0,0,0,0,0,0,0,0,0,0,0,0,0,0,0,0,0,0,0,0,0,0,0,0,0,0,0,0,0,0,0,0,0,0.4902,0.4903,0,0.5005,0.5006,0.5007,0.5051,0.5051,0.5051,0.5051,0.5156,0.5159,0.5162,0,0,0,0,0,0,0,0,0,0,0,0,0,0.4742,0.4745,0.4902,0.4903,0.4904,0.5004,0.5006,0.5007,0.5051,0.5051,0.5051,0.5051,0.5155,0.5158,0.5162,0,0,0,0,0,0,0,0,0,0,0,0,0,0.4825,0.4746,0.4901,0.4938,0.4943,0.5004,0.5006,0.5008,0.5051,0.5051,0.5051,0.505,0.5154,0.5158,0.5162,0.5195,0,0,0.5176,0.5178,0,0,0,0,0,0,0,0,0.482,0.4831,0.4932,0.4936,0.4941,0.5015,0.4988,0.507,0.5051,0.501,0.5051,0.505,0.5109,0.5117,0.5137,0.52,0.5204,0.5176,0.5179,0.5181,0.5182,0,0,0,0,0,0,0,0.4814,0.4827,0.4942,0.4933,0.4939,0.4949,0.4961,0.5004,0.506,0.5014,0.5017,0.5029,0.5112,0.5133,0.514,0.5206,0.5176,0.518,0.5183,0.5185,0.53,0.53,0,0,0,0,0,0,0.4803,0.4821,0.4939,0.4945,0.4879,0.4952,0.4965,0.4991,0.5059,0.5069,0.5029,0.503,0.5125,0.5135,0.5144,0.5186,0.5181,0.5185,0.5188,0.5299,0.53,0.53,0,0,0,0,0,0,0.4799,0.4813,0.4935,0.4884,0.4901,0.4955,0.4984,0.4993,0.5015,0.5071,0.5081,0.504,0.5125,0.5137,0.5182,0.519,0.5187,0.5191,0.5299,0.5299,0.53,0.5271,0,0,0,0,0,0,0.4794,0.4811,0.4824,0.4884,0.4903,0.4971,0.4985,0.4996,0.5022,0.5025,0.5084,0.5094,0.5126,0.5175,0.5186,0.5196,0.5195,0.5298,0.5299,0.53,0.5271,0.527,0.5269,0,0,0,0,0,0.4789,0.4812,0.4825,0.4839,0.4921,0.4972,0.4983,0.5019,0.5023,0.5036,0.5072,0.5092,0.5187,0.5179,0.5192,0.5204,0.5298,0.5299,0.53,0.5272,0.527,0.5269,0,0,0,0,0,0,0.4752,0.4821,0.4836,0.4879,0.4919,0.4979,0.4997,0.5017,0.5057,0.5058,0.5102,0.5115,0.5155,0.5184,0.5173,0.5238,0.5244,0.5248,0.5218,0.5218,0.5217,0.5209,0.5198,0,0,0,0,0,0.4749,0.4784,0.4843,0.4876,0.4895,0.4942,0.4966,0.4991,0.5034,0.5051,0.5091,0.5131,0.5171,0.5196,0.5235,0.5275,0.5289,0.529,0.5289,0.5288,0.529,0.5313,0.5315,0.5303,0.5303,0.5303,0,0,0.4743,0.4785,0.4805,0.4869,0.4903,0.4939,0.4957,0.4994,0.5021,0.5057,0.5101,0.5131,0.518,0.5222,0.5243,0.5247,0.5296,0.5289,0.5288,0.5291,0.5315,0.5316,0.5316,0.5304,0.5304,0.5304,0,0,0.475,0.4786,0.4817,0.4851,0.4902,0.4933,0.494,0.4997,0.5019,0.5064,0.5091,0.5124,0.5191,0.5224,0.525,0.5269,0.5288,0.528,0.5276,0.5298,0.5299,0.53,0.5307,0.5308,0.5283,0.5283,0.5283,0,0.4737,0.4792,0.4831,0.4866,0.4894,0.4928,0.496,0.499,0.5051,0.5069,0.5073,0.5157,0.5193,0.5243,0.5247,0.5267,0.5277,0.5274,0.5296,0.5297,0.5298,0.5305,0.5308,0.5281,0.5281,0.5282,0.5282,0,0.4772,0.481,0.4829,0.4887,0.4917,0.495,0.4993,0.5019,0.504,0.5071,0.5116,0.5159,0.5208,0.5221,0.5243,0.5275,0.5276,0.5287,0.5294,0.5298,0.5305,0.5308,0.5279,0.528,0.528,0.5281,0,0,0.476,0.4839,0.4845,0.4872,0.4931,0.496,0.4995,0.5042,0.5063,0.5103,0.5133,0.5189,0.5199,0.5228,0.5254,0.5273,0.5285,0.5282,0.5284,0.5281,0.5322,0.5314,0.5316,0.5298,0.5299,0.5299,0.5318,0,0.4776,0.484,0.4875,0.4924,0.496,0.4992,0.5022,0.5061,0.509,0.5124,0.5157,0.5195,0.5206,0.5224,0.5244,0.5279,0.5294,0.5279,0.5327,0.5328,0.5314,0.532,0.5311,0.5327,0.5321,0.5322,0.5322,0,0.4803,0.4843,0.4896,0.495,0.4966,0.4992,0.5038,0.507,0.5115,0.5135,0.5166,0.5192,0.5229,0.5233,0.5285,0.5273,0.5295,0.5315,0.5316,0.5323,0.5325,0.5326,0.5333,0.5335,0.5327,0.5327,0.5326,0,0.4789,0.4856,0.4896,0.4918,0.4982,0.5,0.5027,0.5071,0.5097,0.5137,0.5154,0.5198,0.5222,0.5255,0.5291,0.529,0.5339,0.5346,0.5357,0.5356,0.5366,0.5365,0.5376,0.538,0.5379,0.5379,0.5379,0,0.4803,0.4834,0.4891,0.4915,0.4951,0.4991,0.5024,0.5054,0.5093,0.5124,0.5154,0.5182,0.5229,0.5262,0.5291,0.5329,0.534,0.5357,0.5364,0.5355,0.5352,0.537,0.537,0.538,0.538,0.538,0.538,0,0.4793,0.4833,0.4879,0.4935,0.495,0.4974,0.5022,0.5047,0.5078,0.5116,0.5127,0.5175,0.5216,0.5256,0.5311,0.533,0.5369,0.5378,0.5354,0.5358,0.5366,0.5365,0.5389,0.5394,0.5394,0.5393,0.5393,0,0.48,0.4824,0.4884,0.4906,0.4933,0.497,0.4996,0.5036,0.5063,0.5115,0.5133,0.5176,0.5213,0.5277,0.5317,0.5359,0.537,0.5376,0.5377,0.5366,0.537,0.5369,0.5371,0.5375,0.5375,0.5374,0.5374,0,0.4807,0.4825,0.4863,0.4907,0.4937,0.4974,0.5012,0.5028,0.5075,0.5103,0.5146,0.5174,0.523,0.5273,0.5319,0.5347,0.5369,0.5373,0.5378,0.5369,0.5354,0.5362,0.5351,0.5373,0.5373,0.5373,0.5373,0.5373,0.4806,0.4829,0.4874,0.4915,0.4947,0.4981,0.5007,0.5041,0.5077,0.5126,0.5147,0.519,0.5233,0.5298,0.5326,0.5359,0.5364,0.5371,0.5373,0.5374,0.5372,0.5348,0.5368,0.5368,0.5368,0.5368,0.5368,0,0.4815,0.4845,0.4882,0.4934,0.4965,0.4982,0.5024,0.505,0.5087,0.5126,0.5161,0.521,0.5251,0.5293,0.5337,0.5356,0.5366,0.5366,0.5365,0.5371,0.5365,0.5357,0.5356,0.5356,0.5356,0.5356,0.5356,0.5356,0.4823,0.4863,0.4886,0.4943,0.4973,0.5015,0.5038,0.5069,0.51,0.5153,0.5188,0.5215,0.5255,0.5302,0.534,0.5352,0.5366,0.5363,0.5377,0.5371,0.5372,0.5372,0.5365,0.5366,0.5366,0.538,0.538,0.538]},{"header":{"parameterUnit":"m.s-1","parameterCategory":1,"la1":30.2991,"la2":30.254,"lo1":-89.0895,"lo2":-89.0444,"dy":0.0017,"dx":0.0017,"nx":28,"ny":28,"refTime":"2024-05-18T09:00:00:Z","depth":0,"parameterNumber":3,"parameterNumberName":"V-component_of_WINDS"},"data":[0,0,0,0,0,0,0,0,0,0,0,0,0,0,0,0,0,0,0,0,0,0,0,0,0,0,0,0,0,0,0,0,0,0,0,0,0,0,0,0,0,0,0,0,0,0,0,0,0,0,0,0,0,0,0,0,0,0,2.8462,2.8462,0,2.844,2.844,2.844,2.8399,2.8398,2.8398,2.8397,2.8375,2.8375,2.8376,0,0,0,0,0,0,0,0,0,0,0,0,0,2.8469,2.8469,2.8462,2.8462,2.8462,2.844,2.844,2.844,2.8399,2.8398,2.8397,2.8397,2.8375,2.8375,2.8376,0,0,0,0,0,0,0,0,0,0,0,0,0,2.8458,2.8469,2.8462,2.8439,2.8437,2.8441,2.844,2.844,2.84,2.8398,2.8397,2.8396,2.8375,2.8375,2.8376,2.8401,0,0,2.8376,2.8376,0,0,0,0,0,0,0,0,2.8459,2.8458,2.8443,2.844,2.8438,2.8421,2.8435,2.8427,2.84,2.8414,2.8397,2.8396,2.8392,2.839,2.8389,2.84,2.8399,2.8376,2.8377,2.8377,2.8377,0,0,0,0,0,0,0,2.846,2.8459,2.8454,2.8442,2.844,2.843,2.8427,2.8433,2.841,2.8412,2.8409,2.8407,2.839,2.8389,2.8388,2.8399,2.8376,2.8377,2.8377,2.8377,2.8428,2.8429,0,0,0,0,0,0,2.8464,2.846,2.8454,2.8453,2.8446,2.843,2.8427,2.8428,2.8409,2.8405,2.8408,2.8405,2.8389,2.8388,2.8387,2.8415,2.8377,2.8377,2.8377,2.8427,2.8429,2.843,0,0,0,0,0,0,2.8464,2.8464,2.8455,2.8455,2.8454,2.8432,2.8433,2.8428,2.8427,2.8406,2.8402,2.8411,2.8388,2.8387,2.8398,2.8413,2.8377,2.8377,2.8426,2.8427,2.8429,2.8471,0,0,0,0,0,0,2.8465,2.8464,2.8473,2.8456,2.8454,2.8466,2.8434,2.8428,2.8427,2.8423,2.8408,2.8404,2.8387,2.8397,2.8398,2.8413,2.8377,2.8424,2.8426,2.8429,2.8468,2.8474,2.8479,0,0,0,0,0,2.8465,2.8486,2.8474,2.8474,2.8465,2.8467,2.8466,2.8445,2.8429,2.8438,2.8425,2.8405,2.8412,2.8399,2.8399,2.8415,2.8423,2.8426,2.8428,2.8465,2.8472,2.8479,0,0,0,0,0,0,2.8506,2.8483,2.847,2.8486,2.8479,2.846,2.8471,2.8454,2.8451,2.8447,2.8422,2.8419,2.8433,2.8425,2.8411,2.8438,2.8414,2.8417,2.8442,2.8449,2.8454,2.8456,2.8378,0,0,0,0,0,2.8517,2.8521,2.8501,2.8517,2.8514,2.8493,2.8493,2.8478,2.8469,2.8466,2.8454,2.8446,2.8447,2.8447,2.8447,2.8467,2.8462,2.8477,2.8483,2.8488,2.849,2.8499,2.8506,2.8439,2.8439,2.8439,0,0,2.854,2.8528,2.8532,2.8525,2.8517,2.8521,2.8491,2.8496,2.8499,2.8467,2.8476,2.8467,2.8457,2.8472,2.8478,2.8466,2.8508,2.8491,2.8495,2.8495,2.8503,2.8509,2.8515,2.8441,2.844,2.844,0,0,2.8583,2.8575,2.8587,2.858,2.8569,2.8555,2.8558,2.8542,2.8534,2.8543,2.8519,2.8522,2.8523,2.8517,2.8514,2.8555,2.8536,2.8555,2.8584,2.8593,2.8598,2.8603,2.8617,2.8622,2.8558,2.8558,2.8558,0,2.8613,2.8618,2.8596,2.8603,2.86,2.8571,2.8583,2.8578,2.8567,2.8566,2.8553,2.8553,2.8545,2.8558,2.8568,2.8566,2.8569,2.8557,2.8599,2.8604,2.8608,2.862,2.8626,2.8561,2.856,2.856,2.856,0,2.8654,2.8658,2.867,2.866,2.8658,2.8668,2.8647,2.8649,2.8634,2.8622,2.8631,2.8619,2.8615,2.8617,2.8603,2.8628,2.8621,2.8604,2.858,2.8617,2.8628,2.8633,2.8564,2.8563,2.8562,2.8562,0,0,2.8723,2.87,2.8705,2.87,2.8685,2.8688,2.8696,2.8692,2.8694,2.8688,2.8693,2.8695,2.8679,2.8676,2.8661,2.8669,2.8701,2.8651,2.865,2.866,2.8727,2.874,2.8746,2.8689,2.869,2.8691,2.8728,0,2.8762,2.8774,2.8755,2.8772,2.8775,2.8748,2.8755,2.8747,2.8735,2.8736,2.8724,2.8725,2.8704,2.8702,2.8709,2.8696,2.8714,2.8693,2.8694,2.8694,2.8697,2.8752,2.8765,2.8801,2.8732,2.8733,2.8734,0,2.8809,2.8805,2.8823,2.8807,2.8807,2.8814,2.8808,2.881,2.88,2.8791,2.8788,2.8769,2.8776,2.8754,2.8762,2.8748,2.8748,2.8741,2.8742,2.8741,2.8716,2.8752,2.8812,2.8817,2.8741,2.874,2.874,0,2.8856,2.8855,2.8865,2.8862,2.8844,2.8849,2.8842,2.8831,2.883,2.8825,2.8824,2.8821,2.8819,2.8816,2.8798,2.8783,2.8809,2.8784,2.8801,2.8802,2.8807,2.8807,2.8868,2.8808,2.8808,2.8808,2.8808,0,2.8902,2.8914,2.8886,2.8892,2.8904,2.8881,2.8894,2.8884,2.8875,2.8878,2.8855,2.8859,2.8834,2.8835,2.8821,2.883,2.883,2.8822,2.8818,2.8824,2.8825,2.8823,2.8819,2.8809,2.8809,2.8809,2.8809,0,2.8956,2.8938,2.8947,2.8929,2.8925,2.8935,2.892,2.8924,2.8912,2.8917,2.8916,2.8896,2.8897,2.8878,2.8874,2.8865,2.888,2.8872,2.8883,2.888,2.8897,2.8896,2.8958,2.8965,2.8902,2.8903,2.8903,0,2.8986,2.8994,2.8977,2.8978,2.8972,2.8973,2.8972,2.895,2.895,2.8939,2.8945,2.8943,2.8941,2.8942,2.8927,2.8925,2.8916,2.8938,2.8915,2.892,2.8915,2.8915,2.8915,2.8942,2.8943,2.8944,2.8944,0,2.9041,2.9031,2.903,2.9026,2.9025,2.902,2.9014,2.9016,2.8993,2.8993,2.8993,2.8991,2.8987,2.8986,2.898,2.8972,2.8954,2.8952,2.8955,2.8961,2.8967,2.8963,2.8895,2.895,2.895,2.8949,2.8949,2.8949,2.9083,2.9089,2.9078,2.9077,2.907,2.9065,2.9069,2.9056,2.9056,2.9051,2.9038,2.904,2.903,2.902,2.9015,2.9016,2.9005,2.901,2.9011,2.9013,2.9016,2.8967,2.9015,2.9014,2.9014,2.9014,2.9014,0,2.9136,2.9127,2.9127,2.9119,2.9119,2.9102,2.9095,2.9095,2.9097,2.9089,2.9087,2.9087,2.9085,2.907,2.9067,2.907,2.9062,2.907,2.9069,2.9068,2.9026,2.9023,2.9077,2.9077,2.9077,2.9077,2.9077,2.9077,2.9163,2.9172,2.9161,2.9166,2.9158,2.9159,2.9156,2.9151,2.9145,2.9146,2.9144,2.9134,2.9124,2.9119,2.9117,2.9112,2.9112,2.9123,2.9116,2.9077,2.9071,2.9065,2.9062,2.9123,2.9123,2.9157,2.9157,2.9158]}]]